GW0274 Weather Reports


time (UTC)temp
C
wind
direction
speed
KPH
gust
KPH
rain 1hr
cm
rain 24hr
cm
rain mn
cm
humidity
%
barometer
mb
20260504081552 2 0 0.0 0.0 0.00 0.00 0.00 94 976.5
20260504044552 5 0 0.0 0.0 0.00 0.00 0.00 86 975.7
20260504043051 5 0 0.0 0.0 0.00 0.00 0.00 85 975.8
20260504041549 5 0 0.0 1.6 0.00 0.00 0.00 85 976.1
20260504040053 5 0 0.0 0.0 0.00 0.00 0.00 85 976.7
20260504034552 6 0 0.0 16.1 0.00 0.00 0.00 85 977.0
20260504033106 6 0 0.0 1.6 0.00 0.00 0.00 86 977.3
20260504031600 6 0 0.0 22.5 0.00 0.00 0.00 86 976.8
20260504030051 6 0 4.8 38.6 0.00 0.00 0.00 86 976.6
20260504024557 5 98 6.4 29.0 0.00 0.00 0.00 86 977.4
20260504023051 5 0 0.0 27.4 0.00 0.00 0.00 85 978.7
20260504021555 5 160 11.3 41.8 0.00 0.00 0.00 84 978.8
20260504020051 5 160 4.8 46.7 0.00 0.00 0.00 85 979.1
20260504014555 5 104 6.4 48.3 0.00 0.00 0.00 84 979.8
20260504013104 5 111 19.3 51.5 0.00 0.00 0.00 84 980.2
20260504011550 6 92 16.1 43.5 0.00 0.00 0.00 86 981.0
20260504010057 5 143 11.3 38.6 0.00 0.00 0.00 86 982.0
20260504004602 5 160 14.5 41.8 0.00 0.00 0.00 87 982.4
20260504003057 5 103 25.7 59.5 0.00 0.00 0.00 86 983.2
20260504001556 5 96 17.7 46.7 0.00 0.00 0.00 87 984.3
20260504000056 5 160 27.4 56.3 0.00 0.00 0.00 86 984.6
20260503234552 6 96 20.9 64.4 0.00 0.00 0.00 85 986.0
20260503233047 5 94 9.7 41.8 0.00 0.00 0.00 86 987.5
20260503231552 5 160 3.2 41.8 0.00 0.00 0.00 88 988.8
20260503230053 6 62 3.2 35.4 0.00 0.00 0.00 89 990.8
20260503224551 5 62 1.6 29.0 0.00 0.00 0.00 92 991.8
20260503223058 3 0 0.0 0.0 0.00 0.00 0.00 92 992.7
20260503221553 3 0 0.0 1.6 0.00 0.00 0.00 92 993.9
20260503220100 3 0 0.0 0.0 0.00 0.00 0.00 91 994.1
20260503214551 3 0 0.0 16.1 0.00 0.00 0.00 90 994.5
20260503213055 3 0 3.2 35.4 0.00 0.00 0.00 89 994.1
20260503211553 5 160 0.0 24.1 0.00 0.00 0.00 89 995.1
20260503210051 5 0 0.0 0.0 0.00 0.00 0.00 91 995.8
20260503204551 5 0 0.0 0.0 0.00 0.00 0.00 91 996.7
20260503203049 5 0 0.0 0.0 0.00 0.00 0.00 90 997.6
20260503201553 5 0 0.0 0.0 0.00 0.00 0.00 87 998.3
20260503200053 5 0 0.0 6.4 0.00 0.00 0.00 86 998.6
20260503194551 5 0 0.0 20.9 0.00 0.00 0.00 83 999.6
20260503193058 6 0 0.0 9.7 0.00 0.00 0.00 76 1000.7
20260503191550 7 0 0.0 4.8 0.00 0.00 0.00 70 1001.8
20260503190052 8 0 0.0 3.2 0.00 0.00 0.00 65 1002.6
20260503184601 8 0 1.6 16.1 0.00 0.00 0.00 62 1003.0
20260503183050 10 83 3.2 19.3 0.00 0.00 0.00 55 1004.1
20260503181549 11 0 0.0 1.6 0.00 0.00 0.00 47 1004.0
20260503180048 11 0 1.6 25.7 0.00 0.00 0.00 43 1004.4
20260503174606 11 121 0.0 17.7 0.00 0.00 0.00 42 1004.3
20260503173055 11 0 1.6 24.1 0.00 0.00 0.00 41 1005.5
20260503171553 10 100 1.6 17.7 0.00 0.00 0.00 44 1005.6